Year,Month,Day,Hour,Minute,Value (Times are PST for temperature in C)
2008,02,22,00,00,1.70
2008,02,22,00,01,1.70
2008,02,22,00,02,1.70
2008,02,22,00,03,1.50
2008,02,22,00,04,1.30
2008,02,22,00,05,1.10
2008,02,22,00,06,0.90
2008,02,22,00,07,0.70
2008,02,22,00,08,0.60
2008,02,22,00,09,0.50
2008,02,22,00,10,0.40
2008,02,22,00,11,0.30
2008,02,22,00,12,0.20
2008,02,22,00,13,0.20
2008,02,22,01,02,-0.20
2008,02,22,01,03,-0.20
2008,02,22,01,04,-0.20
2008,02,22,01,05,-0.20
2008,02,22,01,06,-0.20
2008,02,22,01,07,-0.30
2008,02,22,01,08,-0.30
2008,02,22,01,09,-0.30
2008,02,22,01,10,-0.30
2008,02,22,01,11,-0.30
2008,02,22,01,12,-0.30
2008,02,22,01,13,-0.30
2008,02,22,01,14,-0.30
2008,02,22,01,15,-0.20
2008,02,22,01,16,-0.20
2008,02,22,01,17,-0.20
2008,02,22,01,18,-0.20
2008,02,22,01,19,-0.20
2008,02,22,01,20,-0.10
2008,02,22,01,21,-0.10
2008,02,22,01,22,-0.10
2008,02,22,01,23,-0.10
2008,02,22,01,24,-0.10
2008,02,22,01,25,-0.10
2008,02,22,01,26,-0.20
2008,02,22,01,27,-0.20
2008,02,22,01,28,-0.20
2008,02,22,01,29,-0.20
2008,02,22,01,30,-0.20
2008,02,22,01,31,-0.20
2008,02,22,01,32,-0.20
2008,02,22,01,33,-0.20
2008,02,22,01,34,-0.20
2008,02,22,01,35,-0.20
2008,02,22,01,36,-0.10
2008,02,22,01,37,-0.10
2008,02,22,01,38,-0.10
2008,02,22,01,39,-0.10
2008,02,22,01,40,-0.10
2008,02,22,01,41,0.00
2008,02,22,01,42,0.00
2008,02,22,01,43,0.00
2008,02,22,01,44,0.00
2008,02,22,01,45,0.00
2008,02,22,01,46,0.00
2008,02,22,01,47,0.00
2008,02,22,01,48,0.00
2008,02,22,01,49,0.00
2008,02,22,01,50,0.00
2008,02,22,01,51,0.00
2008,02,22,01,52,0.00
2008,02,22,01,53,0.00
2008,02,22,01,54,0.00
2008,02,22,01,55,0.00
2008,02,22,01,56,0.00
2008,02,22,01,57,0.10
2008,02,22,01,58,0.10
2008,02,22,01,59,0.10
2008,02,22,02,00,0.10
2008,02,22,02,01,0.10
2008,02,22,02,02,0.20
2008,02,22,02,03,0.20
2008,02,22,02,04,0.20
2008,02,22,02,05,0.20
2008,02,22,02,06,0.30
2008,02,22,02,07,0.30
2008,02,22,02,08,0.30
2008,02,22,02,09,0.30
2008,02,22,02,10,0.30
2008,02,22,02,11,0.30
2008,02,22,02,12,0.30
2008,02,22,02,13,0.30
2008,02,22,02,14,0.30
2008,02,22,02,15,0.40
2008,02,22,02,16,0.40
2008,02,22,02,17,0.40
2008,02,22,02,18,0.40
2008,02,22,02,19,0.40
2008,02,22,02,20,0.40
2008,02,22,02,21,0.40
2008,02,22,02,22,0.40
2008,02,22,02,23,0.40
2008,02,22,02,24,0.40
2008,02,22,02,25,0.40
2008,02,22,02,26,0.40
2008,02,22,02,27,0.40
2008,02,22,02,28,0.40
2008,02,22,02,29,0.40
2008,02,22,02,30,0.50
2008,02,22,02,31,0.50
2008,02,22,02,32,0.50
2008,02,22,02,33,0.50
2008,02,22,02,34,0.60
2008,02,22,02,35,0.60
2008,02,22,02,36,0.60
2008,02,22,02,37,0.70
2008,02,22,02,38,0.70
2008,02,22,02,39,0.90
2008,02,22,02,40,1.10
2008,02,22,02,41,1.20
2008,02,22,02,42,1.30
2008,02,22,02,43,1.30
2008,02,22,02,44,1.40
2008,02,22,02,45,1.50
2008,02,22,02,46,1.60
2008,02,22,02,47,1.70
2008,02,22,02,48,1.70
2008,02,22,02,49,1.70
2008,02,22,02,50,1.60
2008,02,22,02,51,1.60
2008,02,22,02,52,1.40
2008,02,22,02,53,1.30
2008,02,22,02,54,1.30
2008,02,22,02,55,1.20
2008,02,22,02,56,1.10
2008,02,22,02,57,1.10
2008,02,22,02,58,1.00
2008,02,22,02,59,1.00
2008,02,22,03,00,1.00
2008,02,22,03,01,0.90
2008,02,22,03,02,0.90
2008,02,22,03,03,0.90
2008,02,22,03,04,0.90
2008,02,22,03,05,0.90
2008,02,22,03,06,0.90
2008,02,22,03,07,0.90
2008,02,22,03,08,0.90
2008,02,22,03,09,0.90
2008,02,22,03,10,0.90
2008,02,22,03,11,0.90
2008,02,22,03,12,1.00
2008,02,22,03,13,1.00
2008,02,22,03,14,1.10
2008,02,22,03,15,1.10
2008,02,22,03,16,1.20
2008,02,22,03,17,1.30
2008,02,22,03,18,1.30
2008,02,22,03,19,1.30
2008,02,22,03,20,1.30
2008,02,22,03,21,1.30
2008,02,22,03,22,1.30
2008,02,22,03,23,1.30
2008,02,22,03,24,1.30
2008,02,22,03,25,1.30
2008,02,22,03,26,1.30
2008,02,22,03,27,1.30
2008,02,22,03,28,1.30
2008,02,22,03,29,1.30
2008,02,22,03,30,1.30
2008,02,22,03,31,1.30
2008,02,22,03,32,1.30
2008,02,22,03,33,1.30
2008,02,22,03,34,1.30
2008,02,22,03,35,1.30
2008,02,22,03,36,1.50
2008,02,22,03,37,1.60
2008,02,22,03,38,1.70
2008,02,22,03,39,1.80
2008,02,22,03,40,1.70
2008,02,22,03,41,1.60
2008,02,22,03,42,1.60
2008,02,22,03,43,1.50
2008,02,22,03,44,1.40
2008,02,22,03,45,1.40
2008,02,22,03,46,1.30
2008,02,22,03,47,1.30
2008,02,22,03,48,1.30
2008,02,22,03,49,1.30
2008,02,22,03,50,1.30
2008,02,22,03,51,1.30
2008,02,22,03,52,1.30
2008,02,22,03,53,1.30
2008,02,22,03,54,1.30
2008,02,22,03,55,1.30
2008,02,22,03,56,1.30
2008,02,22,03,57,1.30
2008,02,22,03,58,1.30
2008,02,22,03,59,1.30
2008,02,22,04,00,1.30
2008,02,22,04,01,1.30
2008,02,22,04,02,1.30
2008,02,22,04,03,1.30
2008,02,22,04,04,1.40
2008,02,22,04,05,1.40
2008,02,22,04,06,1.40
2008,02,22,04,07,1.40
2008,02,22,04,08,1.50
2008,02,22,04,09,1.50
2008,02,22,04,10,1.50
2008,02,22,04,11,1.60
2008,02,22,04,12,1.60
2008,02,22,04,13,1.60
2008,02,22,04,14,1.70
2008,02,22,04,15,1.70
2008,02,22,04,16,1.70
2008,02,22,04,17,1.70
2008,02,22,04,18,1.70
2008,02,22,04,19,1.80
2008,02,22,04,20,1.80
2008,02,22,04,21,1.90
2008,02,22,04,22,1.90
2008,02,22,04,23,2.00
2008,02,22,04,24,2.00
2008,02,22,04,25,2.10
2008,02,22,04,26,2.10
2008,02,22,04,27,2.20
2008,02,22,04,28,2.30
2008,02,22,04,29,2.30
2008,02,22,04,30,2.40
2008,02,22,04,31,2.50
2008,02,22,04,32,2.50
2008,02,22,04,33,2.60
2008,02,22,04,34,2.70
2008,02,22,04,35,2.70
2008,02,22,04,36,2.80
2008,02,22,04,37,2.90
2008,02,22,04,38,2.90
2008,02,22,04,39,3.00
2008,02,22,04,40,3.00
2008,02,22,04,41,3.00
2008,02,22,04,42,3.10
2008,02,22,04,43,3.20
2008,02,22,04,44,3.20
2008,02,22,04,45,3.20
2008,02,22,04,46,3.20
2008,02,22,04,47,3.30
2008,02,22,04,48,3.30
2008,02,22,04,49,3.30
2008,02,22,04,50,3.30
2008,02,22,04,51,3.30
2008,02,22,04,52,3.40
2008,02,22,04,53,3.40
2008,02,22,04,54,3.40
2008,02,22,04,55,3.40
2008,02,22,04,56,3.40
2008,02,22,04,57,3.40
2008,02,22,04,58,3.40
2008,02,22,04,59,3.40
2008,02,22,05,00,3.40
2008,02,22,05,01,3.40
2008,02,22,05,02,3.40
2008,02,22,05,03,3.40
2008,02,22,05,04,3.40
2008,02,22,05,05,3.30
2008,02,22,05,06,3.30
2008,02,22,05,07,3.40
2008,02,22,05,08,3.40
2008,02,22,05,09,3.40
2008,02,22,05,10,3.40
2008,02,22,05,11,3.40
2008,02,22,05,12,3.50
2008,02,22,05,13,3.50
2008,02,22,05,14,3.50
2008,02,22,05,15,3.50
2008,02,22,05,16,3.50
2008,02,22,05,17,3.60
2008,02,22,05,18,3.60
2008,02,22,05,19,3.60
2008,02,22,05,20,3.60
2008,02,22,05,21,3.60
2008,02,22,05,22,3.60
2008,02,22,05,23,3.60
2008,02,22,05,24,3.60
2008,02,22,05,25,3.60
2008,02,22,05,26,3.60
2008,02,22,05,27,3.60
2008,02,22,05,28,3.60
2008,02,22,05,29,3.60
2008,02,22,05,30,3.60
2008,02,22,05,31,3.60
2008,02,22,05,32,3.60
2008,02,22,05,33,3.70
2008,02,22,05,34,3.70
2008,02,22,05,35,3.70
2008,02,22,05,36,3.70
2008,02,22,05,37,3.70
2008,02,22,05,38,3.70
2008,02,22,05,39,3.70
2008,02,22,05,40,3.70
2008,02,22,05,41,3.70
2008,02,22,05,42,3.70
2008,02,22,05,43,3.70
2008,02,22,05,44,3.70
2008,02,22,05,45,3.70
2008,02,22,05,46,3.70
2008,02,22,05,47,3.70
2008,02,22,05,48,3.70
2008,02,22,05,49,3.70
2008,02,22,05,50,3.70
2008,02,22,05,51,3.70
2008,02,22,05,52,3.70
2008,02,22,05,53,3.70
2008,02,22,05,54,3.70
2008,02,22,05,55,3.70
2008,02,22,05,56,3.70
2008,02,22,05,57,3.70
2008,02,22,05,58,3.70
2008,02,22,05,59,3.70
2008,02,22,06,00,3.70
2008,02,22,06,01,3.70
2008,02,22,06,02,3.70
2008,02,22,06,03,3.60
2008,02,22,06,04,3.60
2008,02,22,06,05,3.60
2008,02,22,06,06,3.60
2008,02,22,06,07,3.60
2008,02,22,06,08,3.60
2008,02,22,06,09,3.60
2008,02,22,06,10,3.60
2008,02,22,06,11,3.60
2008,02,22,06,12,3.60
2008,02,22,06,13,3.50
2008,02,22,06,14,3.60
2008,02,22,06,15,3.60
2008,02,22,06,16,3.60
2008,02,22,06,17,3.60
2008,02,22,06,18,3.50
2008,02,22,06,19,3.60
2008,02,22,06,20,3.50
2008,02,22,06,21,3.50
2008,02,22,06,22,3.50
2008,02,22,06,23,3.50
2008,02,22,06,24,3.50
2008,02,22,06,25,3.50
2008,02,22,06,26,3.50
2008,02,22,06,27,3.50
2008,02,22,06,28,3.50
2008,02,22,06,29,3.50
2008,02,22,06,30,3.50
2008,02,22,06,31,3.50
2008,02,22,06,32,3.50
2008,02,22,06,33,3.50
2008,02,22,06,34,3.60
2008,02,22,06,35,3.60
2008,02,22,06,36,3.70
2008,02,22,06,37,3.70
2008,02,22,06,38,3.60
2008,02,22,06,39,3.60
2008,02,22,06,40,3.60
2008,02,22,06,41,3.60
2008,02,22,06,42,3.60
2008,02,22,06,43,3.60
2008,02,22,06,44,3.60
2008,02,22,06,45,3.60
2008,02,22,06,46,3.50
2008,02,22,06,47,3.50
2008,02,22,06,48,3.50
2008,02,22,06,49,3.40
2008,02,22,06,50,3.40
2008,02,22,06,51,3.40
2008,02,22,06,52,3.40
2008,02,22,06,53,3.40
2008,02,22,06,54,3.40
2008,02,22,06,55,3.30
2008,02,22,06,56,3.30
2008,02,22,06,57,3.30
2008,02,22,06,58,3.30
2008,02,22,06,59,3.30
2008,02,22,07,00,3.30
2008,02,22,07,01,3.30
2008,02,22,07,02,3.30
2008,02,22,07,03,3.30
2008,02,22,07,04,3.30
2008,02,22,07,05,3.30
2008,02,22,07,06,3.30
2008,02,22,07,07,3.30
2008,02,22,07,08,3.30
2008,02,22,07,09,3.20
2008,02,22,07,10,3.20
2008,02,22,07,11,3.30
2008,02,22,07,12,3.20
2008,02,22,07,13,3.20
2008,02,22,07,14,3.20
2008,02,22,07,15,3.20
2008,02,22,07,16,3.20
2008,02,22,07,17,3.20
2008,02,22,07,18,3.30
2008,02,22,07,19,3.30
2008,02,22,07,20,3.30
2008,02,22,07,21,3.40
2008,02,22,07,22,3.40
2008,02,22,07,23,3.40
2008,02,22,07,24,3.50
2008,02,22,07,25,3.50
2008,02,22,07,26,3.60
2008,02,22,07,27,3.60
2008,02,22,07,28,3.60
2008,02,22,07,29,3.60
2008,02,22,07,30,3.60
2008,02,22,07,31,3.60
2008,02,22,07,32,3.60
2008,02,22,07,33,3.60
2008,02,22,07,34,3.60
2008,02,22,07,35,3.60
2008,02,22,07,36,3.60
2008,02,22,07,37,3.70
2008,02,22,07,38,3.70
2008,02,22,07,39,3.70
2008,02,22,07,40,3.70
2008,02,22,07,41,3.70
2008,02,22,07,42,3.70
2008,02,22,07,43,3.70
2008,02,22,07,44,3.70
2008,02,22,07,45,3.70
2008,02,22,07,46,3.70
2008,02,22,07,47,3.70
2008,02,22,07,48,3.70
2008,02,22,07,49,3.60
2008,02,22,07,50,3.60
2008,02,22,07,51,3.50
2008,02,22,07,52,3.50
2008,02,22,07,53,3.50
2008,02,22,07,54,3.40
2008,02,22,07,55,3.40
2008,02,22,07,56,3.50
2008,02,22,07,57,3.50
2008,02,22,07,58,3.50
2008,02,22,07,59,3.50
2008,02,22,08,00,3.50
2008,02,22,08,01,3.60
2008,02,22,08,02,3.60
2008,02,22,08,03,3.60
2008,02,22,08,04,3.60
2008,02,22,08,05,3.60
2008,02,22,08,06,3.60
2008,02,22,08,07,3.60
2008,02,22,08,08,3.60
2008,02,22,08,09,3.60
2008,02,22,08,10,3.50
2008,02,22,08,11,3.50
2008,02,22,08,12,3.50
2008,02,22,08,13,3.40
2008,02,22,08,14,3.40
2008,02,22,08,15,3.50
2008,02,22,08,16,3.50
2008,02,22,08,17,3.60
2008,02,22,08,18,3.60
2008,02,22,08,19,3.60
2008,02,22,08,20,3.60
2008,02,22,08,21,3.60
2008,02,22,08,22,3.60
2008,02,22,08,23,3.60
2008,02,22,08,24,3.70
2008,02,22,08,25,3.70
2008,02,22,08,26,3.70
2008,02,22,08,27,3.70
2008,02,22,08,28,3.80
2008,02,22,08,29,3.80
2008,02,22,08,30,3.80
2008,02,22,08,31,3.90
2008,02,22,08,32,3.90
2008,02,22,08,33,3.90
2008,02,22,08,34,3.90
2008,02,22,08,35,3.90
2008,02,22,08,36,3.90
2008,02,22,08,37,3.90
2008,02,22,08,38,3.90
2008,02,22,08,39,4.00
2008,02,22,08,40,4.00
2008,02,22,08,41,4.00
2008,02,22,08,42,4.00
2008,02,22,08,43,4.00
2008,02,22,08,44,4.00
2008,02,22,08,45,4.00
2008,02,22,08,46,4.00
2008,02,22,08,47,4.00
2008,02,22,08,48,4.00
2008,02,22,08,49,4.00
2008,02,22,08,50,4.00
2008,02,22,08,51,3.90
2008,02,22,08,52,3.90
2008,02,22,08,53,4.00
2008,02,22,08,54,4.10
2008,02,22,08,55,4.10
2008,02,22,08,56,4.20
2008,02,22,08,57,4.20
2008,02,22,08,58,4.30
2008,02,22,08,59,4.30
2008,02,22,09,00,4.40
2008,02,22,09,01,4.40
2008,02,22,09,02,4.40
2008,02,22,09,03,4.40
2008,02,22,09,04,4.40
2008,02,22,09,05,4.40
2008,02,22,09,06,4.40
2008,02,22,09,07,4.40
2008,02,22,09,08,4.40
2008,02,22,09,09,4.40
2008,02,22,09,10,4.50
2008,02,22,09,11,4.50
2008,02,22,09,12,4.60
2008,02,22,09,13,4.60
2008,02,22,09,14,4.60
2008,02,22,09,15,4.70
2008,02,22,09,16,4.70
2008,02,22,09,17,4.70
2008,02,22,09,18,4.80
2008,02,22,09,19,4.80
2008,02,22,09,20,4.80
2008,02,22,09,21,4.80
2008,02,22,09,22,4.80
2008,02,22,09,23,4.80
2008,02,22,09,24,4.80
2008,02,22,09,25,4.80
2008,02,22,09,26,4.70
2008,02,22,09,27,4.70
2008,02,22,09,28,4.60
2008,02,22,09,29,4.50
2008,02,22,09,30,4.60
2008,02,22,09,31,4.60
2008,02,22,09,32,4.60
2008,02,22,09,33,4.70
2008,02,22,09,34,4.70
2008,02,22,09,35,4.70
2008,02,22,09,36,4.80
2008,02,22,09,37,4.80
2008,02,22,09,38,4.90
2008,02,22,09,39,5.00
2008,02,22,09,40,5.10
2008,02,22,09,41,5.20
2008,02,22,09,42,5.20
2008,02,22,09,43,5.30
2008,02,22,09,44,5.50
2008,02,22,09,45,5.60
2008,02,22,09,46,5.70
2008,02,22,09,47,5.80
2008,02,22,09,48,5.90
2008,02,22,09,49,5.90
2008,02,22,09,50,5.90
2008,02,22,09,51,6.00
2008,02,22,09,52,6.00
2008,02,22,09,53,6.10
2008,02,22,09,54,6.20
2008,02,22,09,55,6.30
2008,02,22,09,56,6.50
2008,02,22,09,57,6.70
2008,02,22,09,58,6.80
2008,02,22,09,59,7.00
2008,02,22,10,00,7.20
2008,02,22,10,01,7.40
2008,02,22,10,02,7.60
2008,02,22,10,03,7.70
2008,02,22,10,04,7.80
2008,02,22,10,05,7.90
2008,02,22,10,06,8.00
2008,02,22,10,07,8.10
2008,02,22,10,08,8.20
2008,02,22,10,09,8.30
2008,02,22,10,10,8.30
2008,02,22,10,11,8.40
2008,02,22,10,12,8.40
2008,02,22,10,13,8.50
2008,02,22,10,14,8.60
2008,02,22,10,15,8.60
2008,02,22,10,16,8.60
2008,02,22,10,17,8.60
2008,02,22,10,18,8.60
2008,02,22,10,19,8.60
2008,02,22,10,20,8.70
2008,02,22,10,21,8.70
2008,02,22,10,22,8.70
2008,02,22,10,23,8.70
2008,02,22,10,24,8.70
2008,02,22,10,25,8.80
2008,02,22,10,26,8.80
2008,02,22,10,27,8.80
2008,02,22,10,28,8.70
2008,02,22,10,29,8.70
2008,02,22,10,30,8.80
2008,02,22,10,31,8.80
2008,02,22,10,32,8.80
2008,02,22,10,33,8.80
2008,02,22,10,34,8.90
2008,02,22,10,35,8.90
2008,02,22,10,36,8.90
2008,02,22,10,37,8.90
2008,02,22,10,38,8.90
2008,02,22,10,39,8.90
2008,02,22,10,40,9.00
2008,02,22,10,41,9.00
2008,02,22,10,42,9.00
2008,02,22,10,43,9.00
2008,02,22,10,44,9.00
2008,02,22,10,45,9.00
2008,02,22,10,46,9.00
2008,02,22,10,47,9.00
2008,02,22,10,48,9.00
2008,02,22,10,49,9.00
2008,02,22,10,50,9.00
2008,02,22,10,51,8.90
2008,02,22,10,52,8.90
2008,02,22,10,53,8.90
2008,02,22,10,54,8.90
2008,02,22,10,55,9.00
2008,02,22,10,56,9.00
2008,02,22,10,57,9.10
2008,02,22,10,58,9.10
2008,02,22,10,59,9.10
2008,02,22,11,00,9.20
2008,02,22,11,01,9.20
2008,02,22,11,02,9.20
2008,02,22,11,03,9.20
2008,02,22,11,04,9.20
2008,02,22,11,05,9.20
2008,02,22,11,06,9.20
2008,02,22,11,07,9.20
2008,02,22,11,08,9.20
2008,02,22,11,09,9.20
2008,02,22,11,10,9.20
2008,02,22,11,11,9.30
2008,02,22,11,12,9.30
2008,02,22,11,13,9.40
2008,02,22,11,14,9.40
2008,02,22,11,15,9.50
2008,02,22,11,16,9.60
2008,02,22,11,17,9.60
2008,02,22,11,18,9.60
2008,02,22,11,19,9.60
2008,02,22,11,20,9.60
2008,02,22,11,21,9.60
2008,02,22,11,22,9.60
2008,02,22,11,23,9.70
2008,02,22,11,24,9.80
2008,02,22,11,25,9.80
2008,02,22,11,26,9.90
2008,02,22,11,27,9.90
2008,02,22,11,28,10.00
2008,02,22,11,29,10.00
2008,02,22,11,30,10.00
2008,02,22,11,31,10.00
2008,02,22,11,32,9.90
2008,02,22,11,33,9.80
2008,02,22,11,34,9.80
2008,02,22,11,35,9.80
2008,02,22,11,36,9.90
2008,02,22,11,37,10.00
2008,02,22,11,38,10.10
2008,02,22,11,39,10.10
2008,02,22,11,40,10.20
2008,02,22,11,41,10.30
2008,02,22,11,42,10.30
2008,02,22,11,43,10.30
2008,02,22,11,44,10.30
2008,02,22,11,45,10.30
2008,02,22,11,46,10.30
2008,02,22,11,47,10.20
2008,02,22,11,48,10.20
2008,02,22,11,49,10.20
2008,02,22,11,50,10.20
2008,02,22,11,51,10.20
2008,02,22,11,52,10.20
2008,02,22,11,53,10.30
2008,02,22,11,54,10.30
2008,02,22,11,55,10.30
2008,02,22,11,56,10.30
2008,02,22,11,57,10.30
2008,02,22,11,58,10.30
2008,02,22,11,59,10.30
2008,02,22,12,00,10.30
2008,02,22,12,01,10.30
2008,02,22,12,02,10.30
2008,02,22,12,03,10.30
2008,02,22,12,04,10.30
2008,02,22,12,05,10.30
2008,02,22,12,06,10.30
2008,02,22,12,07,10.40
2008,02,22,12,08,10.40
2008,02,22,12,09,10.40
2008,02,22,12,10,10.40
2008,02,22,12,11,10.40
2008,02,22,12,12,10.40
2008,02,22,12,13,10.50
2008,02,22,12,14,10.60
2008,02,22,12,15,10.70
2008,02,22,12,16,10.70
2008,02,22,12,17,10.80
2008,02,22,12,18,10.80
2008,02,22,12,19,10.80
2008,02,22,12,20,10.80
2008,02,22,12,21,10.80
2008,02,22,12,22,10.80
2008,02,22,12,23,10.80
2008,02,22,12,24,10.80
2008,02,22,12,25,10.90
2008,02,22,12,26,10.90
2008,02,22,12,27,11.00
2008,02,22,12,28,11.00
2008,02,22,12,29,11.00
2008,02,22,12,30,11.10
2008,02,22,12,31,11.10
2008,02,22,12,32,11.20
2008,02,22,12,33,11.20
2008,02,22,12,34,11.30
2008,02,22,12,35,11.30
2008,02,22,12,36,11.40
2008,02,22,12,37,11.40
2008,02,22,12,38,11.40
2008,02,22,12,39,11.50
2008,02,22,12,40,11.50
2008,02,22,12,41,11.60
2008,02,22,12,42,11.60
2008,02,22,12,43,11.60
2008,02,22,12,44,11.70
2008,02,22,12,45,11.70
2008,02,22,12,46,11.70
2008,02,22,12,47,11.70
2008,02,22,12,48,11.80
2008,02,22,12,49,11.90
2008,02,22,12,50,11.90
2008,02,22,12,51,12.00
2008,02,22,12,52,12.00
2008,02,22,12,53,12.00
2008,02,22,12,54,11.90
2008,02,22,12,55,11.90
2008,02,22,12,56,11.90
2008,02,22,12,57,11.90
2008,02,22,12,58,12.00
2008,02,22,12,59,12.10
2008,02,22,13,00,12.00
2008,02,22,13,01,12.00
2008,02,22,13,02,12.10
2008,02,22,13,03,12.10
2008,02,22,13,04,12.10
2008,02,22,13,05,12.00
2008,02,22,13,06,12.00
2008,02,22,13,07,11.90
2008,02,22,13,08,11.80
2008,02,22,13,09,11.80
2008,02,22,13,10,11.70
2008,02,22,13,11,11.60
2008,02,22,13,12,11.60
2008,02,22,13,13,11.50
2008,02,22,13,14,11.50
2008,02,22,13,15,11.40
2008,02,22,13,16,11.40
2008,02,22,13,17,11.40
2008,02,22,13,18,11.50
2008,02,22,13,19,11.60
2008,02,22,13,20,11.60
2008,02,22,13,21,11.70
2008,02,22,13,22,11.80
2008,02,22,13,23,11.90
2008,02,22,13,24,11.90
2008,02,22,13,25,11.90
2008,02,22,13,26,12.00
2008,02,22,13,27,12.00
2008,02,22,13,28,12.00
2008,02,22,13,29,12.10
2008,02,22,13,30,12.20
2008,02,22,13,31,12.30
2008,02,22,13,32,12.40
2008,02,22,13,33,12.50
2008,02,22,13,34,12.50
2008,02,22,13,35,12.60
2008,02,22,13,36,12.70
2008,02,22,13,37,12.70
2008,02,22,13,38,12.70
2008,02,22,13,39,12.70
2008,02,22,13,40,12.80
2008,02,22,13,41,12.80
2008,02,22,13,42,12.90
2008,02,22,13,43,13.00
2008,02,22,13,44,13.10
2008,02,22,13,45,13.10
2008,02,22,13,46,13.10
2008,02,22,13,47,13.10
2008,02,22,13,48,13.20
2008,02,22,13,49,13.30
2008,02,22,13,50,13.40
2008,02,22,13,51,13.50
2008,02,22,13,52,13.50
2008,02,22,13,53,13.40
2008,02,22,13,54,13.40
2008,02,22,13,55,13.40
2008,02,22,13,56,13.50
2008,02,22,13,57,13.50
2008,02,22,13,58,13.60
2008,02,22,13,59,13.60
2008,02,22,14,00,13.50
2008,02,22,14,01,13.60
2008,02,22,14,02,13.50
2008,02,22,14,03,13.50
2008,02,22,14,04,13.40
2008,02,22,14,05,13.40
2008,02,22,14,06,13.40
2008,02,22,14,07,13.50
2008,02,22,14,08,13.40
2008,02,22,14,09,13.50
2008,02,22,14,10,13.60
2008,02,22,14,11,13.60
2008,02,22,14,12,13.70
2008,02,22,14,13,13.70
2008,02,22,14,14,13.70
2008,02,22,14,15,13.70
2008,02,22,14,16,13.70
2008,02,22,14,17,13.80
2008,02,22,14,18,13.80
2008,02,22,14,19,13.80
2008,02,22,14,20,13.80
2008,02,22,14,21,13.80
2008,02,22,14,22,13.80
2008,02,22,14,23,13.90
2008,02,22,14,24,14.00
2008,02,22,14,25,14.10
2008,02,22,14,26,14.20
2008,02,22,14,27,14.20
2008,02,22,14,28,14.10
2008,02,22,14,29,14.10
2008,02,22,14,30,14.10
2008,02,22,14,31,14.10
2008,02,22,14,32,14.10
2008,02,22,14,33,14.10
2008,02,22,14,34,14.10
2008,02,22,14,35,14.10
2008,02,22,14,36,14.10
2008,02,22,14,37,14.10
2008,02,22,14,38,14.10
2008,02,22,14,39,14.10
2008,02,22,14,40,14.10
2008,02,22,14,41,14.10
2008,02,22,14,42,14.20
2008,02,22,14,43,14.20
2008,02,22,14,44,14.30
2008,02,22,14,45,14.40
2008,02,22,14,46,14.40
2008,02,22,14,47,14.40
2008,02,22,14,48,14.40
2008,02,22,14,49,14.50
2008,02,22,14,50,14.50
2008,02,22,14,51,14.40
2008,02,22,14,52,14.50
2008,02,22,14,53,14.50
2008,02,22,14,54,14.60
2008,02,22,14,55,14.60
2008,02,22,14,56,14.60
2008,02,22,14,57,14.70
2008,02,22,14,58,14.70
2008,02,22,14,59,14.70
2008,02,22,15,00,14.70
2008,02,22,15,01,14.70
2008,02,22,15,02,14.60
2008,02,22,15,03,14.50
2008,02,22,15,04,14.40
2008,02,22,15,05,14.30
2008,02,22,15,06,14.10
2008,02,22,15,07,13.90
2008,02,22,15,08,13.80
2008,02,22,15,09,13.80
2008,02,22,15,10,13.70
2008,02,22,15,11,13.70
2008,02,22,15,12,13.60
2008,02,22,15,13,13.50
2008,02,22,15,14,13.50
2008,02,22,15,15,13.40
2008,02,22,15,16,13.30
2008,02,22,15,17,13.20
2008,02,22,15,18,13.10
2008,02,22,15,19,13.00
2008,02,22,15,20,12.80
2008,02,22,15,21,12.70
2008,02,22,15,22,12.60
2008,02,22,15,23,12.50
2008,02,22,15,24,12.40
2008,02,22,15,25,12.20
2008,02,22,15,26,12.00
2008,02,22,15,27,11.90
2008,02,22,15,28,11.80
2008,02,22,15,29,11.70
2008,02,22,15,30,11.70
2008,02,22,15,31,11.70
2008,02,22,15,32,11.70
2008,02,22,15,33,11.60
2008,02,22,15,34,11.60
2008,02,22,15,35,11.60
2008,02,22,15,36,11.60
2008,02,22,15,37,11.60
2008,02,22,15,38,11.60
2008,02,22,15,39,11.60
2008,02,22,15,40,11.50
2008,02,22,15,41,11.50
2008,02,22,15,42,11.50
2008,02,22,15,43,11.50
2008,02,22,15,44,11.50
2008,02,22,15,45,11.50
2008,02,22,15,46,11.60
2008,02,22,15,47,11.60
2008,02,22,15,48,11.70
2008,02,22,15,49,11.70
2008,02,22,15,50,11.70
2008,02,22,15,51,11.70
2008,02,22,15,52,11.70
2008,02,22,15,53,11.70
2008,02,22,15,54,11.70
2008,02,22,15,55,11.70
2008,02,22,15,56,11.70
2008,02,22,15,57,11.60
2008,02,22,15,58,11.60
2008,02,22,15,59,11.50
2008,02,22,16,00,11.50
2008,02,22,16,01,11.50
2008,02,22,16,02,11.60
2008,02,22,16,03,11.60
2008,02,22,16,04,11.50
2008,02,22,16,05,11.50
2008,02,22,16,06,11.40
2008,02,22,16,07,11.40
2008,02,22,16,08,11.30
2008,02,22,16,09,11.30
2008,02,22,16,10,11.20
2008,02,22,16,11,11.20
2008,02,22,16,12,11.20
2008,02,22,16,13,11.20
2008,02,22,16,14,11.20
2008,02,22,16,15,11.10
2008,02,22,16,16,11.10
2008,02,22,16,17,11.10
2008,02,22,16,18,11.10
2008,02,22,16,19,11.10
2008,02,22,16,20,11.10
2008,02,22,16,21,11.20
2008,02,22,16,22,11.20
2008,02,22,16,23,11.20
2008,02,22,16,24,11.20
2008,02,22,16,25,11.20
2008,02,22,16,26,11.20
2008,02,22,16,27,11.20
2008,02,22,16,28,11.10
2008,02,22,16,29,11.10
2008,02,22,16,30,11.10
2008,02,22,16,31,11.10
2008,02,22,16,32,11.00
2008,02,22,16,33,11.00
2008,02,22,16,34,11.00
2008,02,22,16,35,11.00
2008,02,22,16,36,10.90
2008,02,22,16,37,10.90
2008,02,22,16,38,10.90
2008,02,22,16,39,10.90
2008,02,22,16,40,10.90
2008,02,22,16,41,10.80
2008,02,22,16,42,10.80
2008,02,22,16,43,10.70
2008,02,22,16,44,10.70
2008,02,22,16,45,10.60
2008,02,22,16,46,10.50
2008,02,22,16,47,10.50
2008,02,22,16,48,10.30
2008,02,22,16,49,10.30
2008,02,22,16,50,10.20
2008,02,22,16,51,10.10
2008,02,22,16,52,10.10
2008,02,22,16,53,10.10
2008,02,22,16,54,10.00
2008,02,22,16,55,10.00
2008,02,22,16,56,9.90
2008,02,22,16,57,9.90
2008,02,22,16,58,9.90
2008,02,22,16,59,9.90
2008,02,22,17,00,9.90
2008,02,22,17,01,9.80
2008,02,22,17,02,9.80
2008,02,22,17,03,9.80
2008,02,22,17,04,9.80
2008,02,22,17,05,9.80
2008,02,22,17,06,9.80
2008,02,22,17,07,9.90
2008,02,22,17,08,9.90
2008,02,22,17,09,9.90
2008,02,22,17,10,9.90
2008,02,22,17,11,9.90
2008,02,22,17,12,9.90
2008,02,22,17,13,9.90
2008,02,22,17,14,9.90
2008,02,22,17,15,9.90
2008,02,22,17,16,9.80
2008,02,22,17,17,9.80
2008,02,22,17,18,9.80
2008,02,22,17,19,9.80
2008,02,22,17,20,9.80
2008,02,22,17,21,9.70
2008,02,22,17,22,9.70
2008,02,22,17,23,9.70
2008,02,22,17,24,9.70
2008,02,22,17,25,9.70
2008,02,22,17,26,9.70
2008,02,22,17,27,9.70
2008,02,22,17,28,9.60
2008,02,22,17,29,9.60
2008,02,22,17,30,9.60
2008,02,22,17,31,9.60
2008,02,22,17,32,9.60
2008,02,22,17,33,9.60
2008,02,22,17,34,9.60
2008,02,22,17,35,9.60
2008,02,22,17,36,9.60
2008,02,22,17,37,9.50
2008,02,22,17,38,9.40
2008,02,22,17,39,9.30
2008,02,22,17,40,9.30
2008,02,22,17,41,9.30
2008,02,22,17,42,9.20
2008,02,22,17,43,9.20
2008,02,22,17,44,9.10
2008,02,22,17,45,9.00
2008,02,22,17,46,9.00
2008,02,22,17,47,8.90
2008,02,22,17,48,8.90
2008,02,22,17,49,8.90
2008,02,22,17,50,8.90
2008,02,22,17,51,8.90
2008,02,22,17,52,8.90
2008,02,22,17,53,8.90
2008,02,22,17,54,8.90
2008,02,22,17,55,8.80
2008,02,22,17,56,8.80
2008,02,22,17,57,8.70
2008,02,22,17,58,8.70
2008,02,22,17,59,8.60
2008,02,22,18,00,8.60
2008,02,22,18,01,8.60
2008,02,22,18,02,8.60
2008,02,22,18,03,8.50
2008,02,22,18,04,8.50
2008,02,22,18,05,8.40
2008,02,22,18,06,8.40
2008,02,22,18,07,8.40
2008,02,22,18,08,8.40
2008,02,22,18,09,8.40
2008,02,22,18,10,8.30
2008,02,22,18,11,8.30
2008,02,22,18,12,8.30
2008,02,22,18,13,8.30
2008,02,22,18,14,8.30
2008,02,22,18,15,8.30
2008,02,22,18,16,8.30
2008,02,22,18,17,8.30
2008,02,22,18,18,8.20
2008,02,22,18,19,8.20
2008,02,22,18,20,8.20
2008,02,22,18,21,8.20
2008,02,22,18,22,8.20
2008,02,22,18,23,8.20
2008,02,22,18,24,8.20
2008,02,22,18,25,8.20
2008,02,22,18,26,8.20
2008,02,22,18,27,8.10
2008,02,22,18,28,8.10
2008,02,22,18,29,8.10
2008,02,22,18,30,8.10
2008,02,22,18,31,8.00
2008,02,22,18,32,8.00
2008,02,22,18,33,8.00
2008,02,22,18,34,7.90
2008,02,22,18,35,7.90
2008,02,22,18,36,7.90
2008,02,22,18,37,7.90
2008,02,22,18,38,7.90